User: anonymous   Login
Location: Bittelbronn
(48.4454°N, 8.5870°E)
Time: 18:42:47
(UTC+00:00)
Language:

Cosmos 2251 Rocket - Orbit

View from above orbital plane
View from above orbital plane
View from above satellite
View from above satellite

Ground track
Ground track

The orbit data is extracted from the following two-line orbital elements,

1 22676U 93036B   24207.19993637  .00000510  00000-0  18911-3 0  9995
2 22676  74.0424 114.5388 0019615 228.2135 131.7342 14.34658396627343
Epoch (UTC): 25 July 2024 04:47:54
Eccentricity: 0.0019615
inclination: 74.0424°
perigee height: 762 km
apogee height: 790 km
right ascension of ascending node: 114.5388°
argument of perigee: 228.2135°
revolutions per day: 14.34658396
mean anomaly at epoch: 131.7342°
orbit number at epoch: 62734

The dashed part of the orbit path shows where the satellite is in the earth's shadow,  

DLR